Location: Stara Lesna
(49.1528°N, 20.2911°E)
Time: 03:38:44
(UTC+02:00)

Iridium 4 Rocket - Pass Details

Date: 13 July 2020
Orbit: 583 x 906 km, 86.9° (Epoch: 11 August)

Event Time Altitude Azimuth Distance (km) Brightness Sun altitude
Exits shadow 01:27:25 31° 173° (S) 1,479 4.4 -18.4°
Maximum altitude 01:30:18 80° 90° (E) 862 3.7 -18.3°
Drops below altitude 10° 01:35:40 10° 5° (N) 2,373 7.3 -18.2°
Sets 01:37:56 0° 5° (N) 3,258 8.4 -18.1°
